GW3557 Weather Reports


time (UTC)temp
C
wind
direction
speed
KPH
gust
KPH
rain 1hr
cm
rain 24hr
cm
rain mn
cm
humidity
%
barometer
mb
20260506191528 18 225 0.0 6.4 0.00 0.00 0.00 43 1016.1
20260506191009 18 77 1.6 4.8 0.00 0.00 0.00 43 1016.4
20260506190514 18 98 1.6 4.8 0.00 0.00 0.00 44 1016.3
20260506190029 18 34 1.6 4.8 0.00 0.00 0.00 43 1016.3
20260506185509 18 100 1.6 4.8 0.00 0.00 0.00 45 1016.3
20260506185013 17 91 1.6 4.8 0.00 0.00 0.00 45 1016.3
20260506184544 17 107 0.0 4.8 0.00 0.00 0.00 44 1016.3
20260506184015 17 57 0.0 4.8 0.00 0.00 0.00 45 1016.4
20260506183511 17 76 1.6 6.4 0.00 0.00 0.00 46 1016.4
20260506183038 17 37 1.6 8.0 0.00 0.00 0.00 43 1016.3
20260506182512 17 58 1.6 8.0 0.00 0.00 0.00 43 1016.4
20260506182017 17 101 3.2 6.4 0.00 0.00 0.00 46 1016.5
20260506181548 17 71 1.6 6.4 0.00 0.00 0.00 44 1016.2
20260506181015 17 51 3.2 6.4 0.00 0.00 0.00 46 1016.2
20260506180509 17 82 1.6 4.8 0.00 0.00 0.00 47 1016.4
20260506180034 17 59 1.6 4.8 0.00 0.00 0.00 49 1016.4
20260506175511 17 108 1.6 4.8 0.00 0.00 0.00 49 1016.4
20260506175011 16 94 1.6 6.4 0.00 0.00 0.00 48 1016.4
20260506174533 16 70 1.6 6.4 0.00 0.00 0.00 49 1016.4
20260506174011 16 74 3.2 6.4 0.00 0.00 0.00 48 1016.3
20260506173510 16 88 0.0 4.8 0.00 0.00 0.00 47 1016.2
20260506173053 16 93 3.2 6.4 0.00 0.00 0.00 45 1016.3
20260506172510 16 34 1.6 6.4 0.00 0.00 0.00 47 1016.4
20260506172011 16 79 1.6 4.8 0.00 0.00 0.00 45 1016.6
20260506171531 17 113 3.2 4.8 0.00 0.00 0.00 45 1016.5
20260506171013 17 36 1.6 4.8 0.00 0.00 0.00 44 1016.5
20260506170512 17 97 1.6 4.8 0.00 0.00 0.00 44 1016.4
20260506170029 17 76 0.0 4.8 0.00 0.00 0.00 42 1016.5
20260506165512 16 90 0.0 6.4 0.00 0.00 0.00 44 1016.4
20260506165011 16 49 1.6 4.8 0.00 0.00 0.00 43 1016.5
20260506164537 16 93 1.6 4.8 0.00 0.00 0.00 43 1016.4
20260506164012 16 95 3.2 4.8 0.00 0.00 0.00 42 1016.5
20260506163509 16 57 1.6 6.4 0.00 0.00 0.00 43 1016.5
20260506163035 15 98 1.6 6.4 0.00 0.00 0.00 42 1016.5
20260506162510 15 107 1.6 6.4 0.00 0.00 0.00 43 1016.5
20260506162011 15 93 1.6 4.8 0.00 0.00 0.00 45 1016.6
20260506161530 15 93 1.6 4.8 0.00 0.00 0.00 43 1016.5
20260506161010 15 108 3.2 4.8 0.00 0.00 0.00 44 1016.5
20260506160512 15 112 1.6 4.8 0.00 0.00 0.00 45 1016.5
20260506160035 15 115 1.6 4.8 0.00 0.00 0.00 45 1016.5
20260506155511 15 90 1.6 4.8 0.00 0.00 0.00 46 1016.6
20260506155012 15 96 1.6 4.8 0.00 0.00 0.00 46 1016.7
20260506154536 15 91 1.6 4.8 0.00 0.00 0.00 45 1016.6
20260506154014 15 103 1.6 4.8 0.00 0.00 0.00 45 1016.7
20260506153518 15 105 1.6 6.4 0.00 0.00 0.00 45 1016.6
20260506153030 15 99 1.6 6.4 0.00 0.00 0.00 44 1016.5
20260506152509 15 96 1.6 6.4 0.00 0.00 0.00 43 1016.6
20260506152015 15 84 1.6 4.8 0.00 0.00 0.00 45 1016.5
20260506151531 15 102 1.6 4.8 0.00 0.00 0.00 43 1016.6
20260506151012 15 101 1.6 4.8 0.00 0.00 0.00 42 1016.5
20260506150511 15 109 1.6 4.8 0.00 0.00 0.00 42 1016.6
20260506150033 16 78 1.6 4.8 0.00 0.00 0.00 43 1016.6
20260506145515 16 93 1.6 4.8 0.00 0.00 0.00 44 1016.7
20260506145013 16 66 1.6 4.8 0.00 0.00 0.00 44 1016.6
20260506144534 15 98 1.6 4.8 0.00 0.00 0.00 46 1016.5
20260506144015 15 66 0.0 3.2 0.00 0.00 0.00 45 1016.5
20260506143512 15 63 1.6 3.2 0.00 0.00 0.00 50 1016.5
20260506143033 15 103 1.6 4.8 0.00 0.00 0.00 49 1016.4
20260506142511 15 111 1.6 4.8 0.00 0.00 0.00 46 1016.5
20260506142013 15 63 0.0 3.2 0.00 0.00 0.00 49 1016.2
20260506141531 14 63 0.0 3.2 0.00 0.00 0.00 48 1016.1
20260506141014 14 65 0.0 3.2 0.00 0.00 0.00 47 1016.0
20260506140513 14 63 0.0 3.2 0.00 0.00 0.00 48 1016.0
20260506140030 13 50 0.0 3.2 0.00 0.00 0.00 48 1016.2
20260506135513 13 223 0.0 0.0 0.00 0.00 0.00 51 1016.0
20260506135012 13 223 0.0 0.0 0.00 0.00 0.00 49 1016.1
20260506134533 13 223 0.0 0.0 0.00 0.00 0.00 49 1016.0
20260506134017 13 223 0.0 0.0 0.00 0.00 0.00 47 1015.9
20260506133510 13 223 0.0 0.0 0.00 0.00 0.00 46 1016.0
20260506133034 13 223 0.0 0.0 0.00 0.00 0.00 46 1015.9
20260506132513 13 223 0.0 0.0 0.00 0.00 0.00 44 1016.0
20260506132010 13 223 0.0 1.6 0.00 0.00 0.00 45 1015.9
20260506131535 13 223 0.0 1.6 0.00 0.00 0.00 45 1015.9
20260506131014 13 223 0.0 1.6 0.00 0.00 0.00 44 1016.1
20260506130514 13 223 0.0 1.6 0.00 0.00 0.00 43 1016.0
20260506130031 12 223 0.0 0.0 0.00 0.00 0.00 42 1016.0
20260506125512 12 223 0.0 1.6 0.00 0.00 0.00 43 1016.0
20260506125013 12 223 0.0 1.6 0.00 0.00 0.00 43 1015.9
20260506124531 12 223 0.0 1.6 0.00 0.00 0.00 42 1015.9
20260506124015 12 223 0.0 1.6 0.00 0.00 0.00 42 1015.7
20260506123513 12 223 0.0 1.6 0.00 0.00 0.00 41 1015.7
20260506123032 12 223 0.0 3.2 0.00 0.00 0.00 43 1015.7
20260506122513 12 223 0.0 3.2 0.00 0.00 0.00 43 1015.7
20260506122013 12 223 1.6 3.2 0.00 0.00 0.00 44 1015.7
20260506121537 12 223 0.0 1.6 0.00 0.00 0.00 44 1015.7
20260506121013 12 223 0.0 3.2 0.00 0.00 0.00 44 1015.7
20260506120513 12 223 0.0 3.2 0.00 0.00 0.00 44 1015.7
20260506120041 12 223 0.0 1.6 0.00 0.00 0.00 44 1015.7
20260506115516 12 223 0.0 1.6 0.00 0.00 0.00 43 1015.9
20260506115014 13 223 0.0 1.6 0.00 0.00 0.00 42 1015.8
20260506114539 13 223 0.0 3.2 0.00 0.00 0.00 41 1015.8
20260506114013 13 223 0.0 3.2 0.00 0.00 0.00 41 1015.7
20260506113512 13 223 1.6 3.2 0.00 0.00 0.00 40 1015.8
20260506113043 13 223 1.6 3.2 0.00 0.00 0.00 40 1015.8
20260506112512 13 223 0.0 3.2 0.00 0.00 0.00 40 1015.8
20260506112014 13 223 1.6 3.2 0.00 0.00 0.00 40 1015.8
20260506111538 13 223 0.0 1.6 0.00 0.00 0.00 40 1015.8
20260506111012 13 221 0.0 3.2 0.00 0.00 0.00 41 1015.8
20260506110513 13 221 0.0 3.2 0.00 0.00 0.00 40 1015.9
20260506110037 13 221 0.0 3.2 0.00 0.00 0.00 40 1015.8
20260506105513 13 221 0.0 3.2 0.00 0.00 0.00 39 1015.9
20260506105013 13 221 0.0 3.2 0.00 0.00 0.00 38 1015.8
20260506104536 13 221 0.0 4.8 0.00 0.00 0.00 40 1015.8
20260506104012 13 229 1.6 4.8 0.00 0.00 0.00 40 1015.8
20260506103511 13 238 3.2 4.8 0.00 0.00 0.00 40 1015.7
20260506103052 13 236 1.6 4.8 0.00 0.00 0.00 40 1015.7
20260506102515 13 254 1.6 4.8 0.00 0.00 0.00 40 1015.7
20260506102014 13 244 1.6 4.8 0.00 0.00 0.00 40 1015.7
20260506101538 13 244 3.2 4.8 0.00 0.00 0.00 40 1015.8
20260506101013 13 242 3.2 4.8 0.00 0.00 0.00 40 1015.7
20260506100513 13 237 1.6 4.8 0.00 0.00 0.00 40 1015.7
20260506100039 13 225 1.6 4.8 0.00 0.00 0.00 41 1015.8
20260506095515 13 229 1.6 4.8 0.00 0.00 0.00 40 1015.8
20260506095014 13 240 1.6 4.8 0.00 0.00 0.00 41 1015.8
20260506094538 13 220 1.6 8.0 0.00 0.00 0.00 41 1015.8
20260506094014 13 246 1.6 8.0 0.00 0.00 0.00 41 1015.9
20260506093515 13 239 1.6 4.8 0.00 0.00 0.00 42 1015.9
20260506093042 13 246 1.6 4.8 0.00 0.00 0.00 43 1016.0
20260506092513 13 232 1.6 4.8 0.00 0.00 0.00 42 1016.0
20260506092015 13 219 1.6 4.8 0.00 0.00 0.00 43 1015.9
20260506091546 13 234 1.6 3.2 0.00 0.00 0.00 43 1016.0
20260506091013 13 222 1.6 3.2 0.00 0.00 0.00 43 1015.9
20260506090513 13 220 1.6 3.2 0.00 0.00 0.00 43 1015.9
20260506090038 13 217 1.6 4.8 0.00 0.00 0.00 43 1016.0
20260506085513 13 239 1.6 4.8 0.00 0.00 0.00 43 1015.9
20260506085013 14 234 1.6 4.8 0.00 0.00 0.00 43 1015.9
20260506084542 14 249 1.6 4.8 0.00 0.00 0.00 43 1015.7
20260506084014 14 225 1.6 4.8 0.00 0.00 0.00 43 1015.7
20260506083514 14 246 1.6 4.8 0.00 0.00 0.00 42 1015.7
20260506083036 14 196 1.6 3.2 0.00 0.00 0.00 42 1015.8
20260506082512 14 231 1.6 4.8 0.00 0.00 0.00 42 1015.7
20260506082013 14 249 1.6 4.8 0.00 0.00 0.00 41 1015.7
20260506081541 14 233 1.6 4.8 0.00 0.00 0.00 42 1015.8
20260506081017 15 236 1.6 4.8 0.00 0.00 0.00 42 1015.7
20260506080514 15 258 1.6 4.8 0.00 0.00 0.00 42 1015.7
20260506073513 15 241 0.0 1.6 0.00 0.00 0.00 40 1015.7
20260506073039 15 241 0.0 3.2 0.00 0.00 0.00 39 1015.7
20260506072513 15 241 0.0 3.2 0.00 0.00 0.00 39 1015.7
20260506072020 15 242 0.0 1.6 0.00 0.00 0.00 39 1015.8
20260506071536 15 242 0.0 3.2 0.00 0.00 0.00 39 1015.8
20260506071013 15 242 0.0 3.2 0.00 0.00 0.00 40 1015.9
20260506070515 15 243 1.6 3.2 0.00 0.00 0.00 40 1015.8
20260506062513 15 229 1.6 3.2 0.00 0.00 0.00 42 1015.7
20260506062013 15 229 1.6 3.2 0.00 0.00 0.00 43 1015.7
20260506061543 14 229 1.6 4.8 0.00 0.00 0.00 44 1015.7
20260506061013 14 231 1.6 4.8 0.00 0.00 0.00 44 1015.7
20260506060513 14 223 1.6 4.8 0.00 0.00 0.00 45 1015.7
20260506051013 15 238 1.6 3.2 0.00 0.00 0.00 45 1015.8
20260506050513 15 244 1.6 3.2 0.00 0.00 0.00 44 1015.8
20260506045014 15 247 1.6 3.2 0.00 0.00 0.00 45 1015.8
20260506044534 15 251 0.0 3.2 0.00 0.00 0.00 44 1015.7
20260506044014 15 248 1.6 3.2 0.00 0.00 0.00 44 1015.7
20260506043517 15 241 0.0 1.6 0.00 0.00 0.00 44 1015.7
20260506043035 15 241 0.0 1.6 0.00 0.00 0.00 44 1015.7
20260506042514 15 241 0.0 3.2 0.00 0.00 0.00 45 1015.6
20260506042014 15 241 0.0 3.2 0.00 0.00 0.00 45 1015.6
20260506041538 15 241 0.0 3.2 0.00 0.00 0.00 45 1015.6
20260506041013 15 242 1.6 3.2 0.00 0.00 0.00 44 1015.6
20260506040514 15 235 1.6 3.2 0.00 0.00 0.00 44 1015.5
20260506040038 15 234 0.0 1.6 0.00 0.00 0.00 45 1015.5
20260506035514 15 234 0.0 3.2 0.00 0.00 0.00 45 1015.4
20260506035015 15 234 0.0 3.2 0.00 0.00 0.00 46 1015.5
20260506034554 15 234 0.0 1.6 0.00 0.00 0.00 46 1015.5
20260506034013 15 234 0.0 1.6 0.00 0.00 0.00 45 1015.4
20260506033513 15 234 0.0 3.2 0.00 0.00 0.00 46 1015.5
20260506033036 15 234 0.0 3.2 0.00 0.00 0.00 46 1015.5
20260506032514 15 234 1.6 3.2 0.00 0.00 0.00 47 1015.5
20260506032016 15 234 1.6 3.2 0.00 0.00 0.00 46 1015.4
20260506031543 15 234 1.6 3.2 0.00 0.00 0.00 47 1015.3
20260506031014 15 234 1.6 3.2 0.00 0.00 0.00 47 1015.2
20260506030514 15 234 1.6 3.2 0.00 0.00 0.00 47 1015.2
20260506030041 15 234 1.6 3.2 0.00 0.00 0.00 46 1015.1
20260506025514 15 234 0.0 3.2 0.00 0.00 0.00 46 1015.1
20260506025013 15 234 1.6 3.2 0.00 0.00 0.00 46 1015.1
20260506024557 15 233 0.0 3.2 0.00 0.00 0.00 46 1015.1
20260506024016 15 233 1.6 3.2 0.00 0.00 0.00 46 1015.0
20260506023517 15 234 1.6 3.2 0.00 0.00 0.00 45 1015.1
20260506023037 15 234 0.0 3.2 0.00 0.00 0.00 46 1015.1
20260506022515 15 234 1.6 3.2 0.00 0.00 0.00 46 1015.0
20260506022014 16 234 0.0 4.8 0.00 0.00 0.00 47 1015.0
20260506021536 16 238 1.6 4.8 0.00 0.00 0.00 46 1015.1
20260506021020 16 229 0.0 3.2 0.00 0.00 0.00 45 1015.3
20260506020513 16 232 0.0 3.2 0.00 0.00 0.00 43 1015.3
20260506020042 16 218 0.0 3.2 0.00 0.00 0.00 45 1015.3
20260506015514 16 244 0.0 3.2 0.00 0.00 0.00 44 1015.2
20260506015014 16 317 0.0 3.2 0.00 0.00 0.00 44 1015.1
20260506014540 16 205 0.0 3.2 0.00 0.00 0.00 45 1015.1
20260506014014 16 215 0.0 3.2 0.00 0.00 0.00 45 1015.1
20260506013514 17 215 0.0 3.2 0.00 0.00 0.00 44 1015.1
20260506013058 17 211 0.0 6.4 0.00 0.00 0.00 43 1015.2
20260506012514 17 46 1.6 6.4 0.00 0.00 0.00 41 1015.1
20260506012018 17 207 0.0 3.2 0.00 0.00 0.00 42 1015.2
20260506011539 17 207 0.0 3.2 0.00 0.00 0.00 42 1015.3
20260506011017 17 192 0.0 3.2 0.00 0.00 0.00 41 1015.2
20260506010518 17 194 0.0 3.2 0.00 0.00 0.00 40 1015.3
20260506010044 18 194 0.0 3.2 0.00 0.00 0.00 40 1015.0
20260506005515 18 194 0.0 3.2 0.00 0.00 0.00 39 1015.1
20260506005017 18 169 0.0 3.2 0.00 0.00 0.00 38 1015.2
20260506004538 18 168 1.6 3.2 0.00 0.00 0.00 39 1015.3
20260506004014 18 92 0.0 3.2 0.00 0.00 0.00 38 1015.2
20260506003516 19 173 0.0 3.2 0.00 0.00 0.00 38 1015.3
20260506003040 19 143 0.0 3.2 0.00 0.00 0.00 35 1015.2
20260506002514 19 143 0.0 3.2 0.00 0.00 0.00 38 1015.1
20260506002015 20 143 0.0 3.2 0.00 0.00 0.00 35 1015.1
20260506001541 20 143 0.0 3.2 0.00 0.00 0.00 36 1015.2
20260506001014 20 247 0.0 4.8 0.00 0.00 0.00 36 1015.3
20260506000515 20 200 1.6 4.8 0.00 0.00 0.00 34 1015.2
20260506000037 20 98 0.0 4.8 0.00 0.00 0.00 34 1015.3
20260505235516 20 99 0.0 4.8 0.00 0.00 0.00 34 1015.4
20260505235015 20 96 0.0 3.2 0.00 0.00 0.00 37 1015.4
20260505234538 20 112 0.0 4.8 0.00 0.00 0.00 36 1015.4
20260505234015 20 115 1.6 4.8 0.00 0.00 0.00 34 1015.5
20260505233515 20 132 0.0 3.2 0.00 0.00 0.00 35 1015.4
20260505233038 20 42 1.6 3.2 0.00 0.00 0.00 36 1015.6
20260505232514 20 79 1.6 3.2 0.00 0.00 0.00 34 1015.5
20260505232017 20 86 0.0 4.8 0.00 0.00 0.00 37 1015.5
20260505231542 20 74 1.6 4.8 0.00 0.00 0.00 34 1015.7
20260505231017 20 120 1.6 4.8 0.00 0.00 0.00 36 1015.7
20260505230517 20 113 1.6 4.8 0.00 0.00 0.00 34 1015.7
20260505230052 20 87 0.0 4.8 0.00 0.00 0.00 34 1015.6
20260505225516 20 128 1.6 6.4 0.00 0.00 0.00 34 1015.7
20260505225015 20 98 1.6 6.4 0.00 0.00 0.00 35 1015.8
20260505224539 19 56 0.0 6.4 0.00 0.00 0.00 34 1015.7
20260505224015 19 113 1.6 4.8 0.00 0.00 0.00 34 1015.8
20260505223515 20 101 3.2 6.4 0.00 0.00 0.00 35 1015.9
20260505223055 20 40 3.2 6.4 0.00 0.00 0.00 33 1015.9
20260505222515 20 71 1.6 6.4 0.00 0.00 0.00 37 1015.9
20260505222015 20 90 1.6 8.0 0.00 0.00 0.00 35 1016.0
20260505221538 19 98 3.2 8.0 0.00 0.00 0.00 36 1015.9
20260505221016 19 114 0.0 4.8 0.00 0.00 0.00 34 1016.0
20260505220515 19 91 1.6 4.8 0.00 0.00 0.00 35 1016.2
20260505220043 19 94 1.6 4.8 0.00 0.00 0.00 34 1016.2
20260505215515 19 105 1.6 4.8 0.00 0.00 0.00 35 1016.2
20260505215015 19 90 1.6 4.8 0.00 0.00 0.00 37 1016.2
20260505214537 18 42 0.0 4.8 0.00 0.00 0.00 36 1016.2
20260505214018 18 96 3.2 4.8 0.00 0.00 0.00 35 1016.3
20260505213514 18 61 1.6 6.4 0.00 0.00 0.00 35 1016.3
20260505213050 19 96 3.2 6.4 0.00 0.00 0.00 35 1016.5
20260505212519 19 55 3.2 9.7 0.00 0.00 0.00 35 1016.4
20260505212018 19 98 3.2 9.7 0.00 0.00 0.00 36 1016.4
20260505211542 19 148 1.6 4.8 0.00 0.00 0.00 38 1016.5
20260505211015 18 44 1.6 6.4 0.00 0.00 0.00 38 1016.6
20260505210518 18 80 1.6 6.4 0.00 0.00 0.00 35 1016.5
20260505210038 18 102 1.6 6.4 0.00 0.00 0.00 34 1016.7
20260505205517 18 106 3.2 4.8 0.00 0.00 0.00 36 1016.6
20260505205015 18 92 1.6 6.4 0.00 0.00 0.00 40 1016.6
20260505204548 18 37 3.2 6.4 0.00 0.00 0.00 37 1016.6
20260505204017 18 305 1.6 6.4 0.00 0.00 0.00 37 1016.7
20260505203516 18 94 1.6 6.4 0.00 0.00 0.00 36 1016.7
20260505203046 18 106 3.2 6.4 0.00 0.00 0.00 39 1017.0
20260505202515 17 105 3.2 6.4 0.00 0.00 0.00 37 1016.8
20260505202018 17 102 3.2 8.0 0.00 0.00 0.00 37 1016.8
20260505201543 17 46 3.2 8.0 0.00 0.00 0.00 39 1016.7
20260505201015 18 87 1.6 4.8 0.00 0.00 0.00 36 1016.8
20260505200703 18 107 1.6 8.0 0.00 0.00 0.00 37 1017.0
20260505200051 18 88 1.6 8.0 0.00 0.00 0.00 37 1017.0
20260505195520 18 59 3.2 6.4 0.00 0.00 0.00 39 1017.0
20260505195018 18 107 1.6 6.4 0.00 0.00 0.00 39 1017.0
20260505194604 17 42 3.2 6.4 0.00 0.00 0.00 39 1016.9
20260505194020 17 62 1.6 6.4 0.00 0.00 0.00 39 1017.1
20260505193522 17 139 3.2 8.0 0.00 0.00 0.00 39 1017.0
20260505193055 17 84 4.8 8.0 0.00 0.00 0.00 38 1017.3
20260505192519 17 55 3.2 6.4 0.00 0.00 0.00 41 1017.1
20260505192018 17 84 1.6 6.4 0.00 0.00 0.00 42 1017.2